GW3736 Weather Reports


time (UTC)temp
C
wind
direction
speed
KPH
gust
KPH
rain 1hr
cm
rain 24hr
cm
rain mn
cm
humidity
%
barometer
mb
20260502211524 8 279 9.7 20.9 0.00 0.00 0.00 43 1012.1
20260502210519 8 273 4.8 9.7 0.00 0.00 0.00 42 1012.1
20260502205556 8 281 9.7 17.7 0.00 0.00 0.00 43 1012.1
20260502204532 8 281 8.0 17.7 0.00 0.00 0.00 43 1012.2
20260502203527 9 280 6.4 14.5 0.00 0.00 0.00 42 1012.2
20260502202524 8 282 3.2 11.3 0.00 0.00 0.00 43 1012.3
20260502201520 8 283 4.8 11.3 0.00 0.00 0.00 42 1012.4
20260502200516 8 285 6.4 12.9 0.00 0.00 0.00 44 1012.5
20260502195532 8 286 6.4 12.9 0.00 0.00 0.00 42 1012.6
20260502194528 9 296 6.4 20.9 0.00 0.00 0.00 43 1012.7
20260502193524 9 278 4.8 12.9 0.00 0.00 0.00 43 1012.7
20260502192520 8 289 4.8 11.3 0.00 0.00 0.00 43 1012.9
20260502191536 8 254 4.8 12.9 0.00 0.00 0.00 43 1012.9
20260502190552 8 272 8.0 14.5 0.00 0.00 0.00 42 1013.0
20260502185527 8 283 6.4 12.9 0.00 0.00 0.00 43 1013.0
20260502184524 8 268 9.7 16.1 0.00 0.00 0.00 42 1013.1
20260502183520 8 287 8.0 14.5 0.00 0.00 0.00 42 1013.1
20260502182556 8 297 4.8 11.3 0.00 0.00 0.00 43 1013.0
20260502181532 9 293 6.4 16.1 0.00 0.00 0.00 42 1013.1
20260502180527 10 298 8.0 14.5 0.00 0.00 0.00 45 1013.3
20260502163531 7 328 4.8 14.5 0.00 0.00 0.00 50 1013.6
20260502162527 7 318 3.2 9.7 0.00 0.00 0.00 50 1013.7
20260502161524 7 316 4.8 11.3 0.00 0.00 0.00 51 1013.7
20260502160519 7 327 4.8 12.9 0.00 0.00 0.00 52 1013.7
20260502151520 7 334 6.4 12.9 0.00 0.00 0.00 56 1013.8
20260502150515 7 336 6.4 14.5 0.00 0.00 0.00 55 1013.6
20260502130527 6 335 6.4 11.3 0.00 0.00 0.00 65 1014.0
20260502123535 5 0 1.6 6.4 0.00 0.00 0.00 69 1013.8
20260502122530 5 344 4.8 6.4 0.00 0.00 0.00 69 1013.8
20260502121527 4 338 4.8 11.3 0.00 0.00 0.00 71 1013.8
20260502120522 4 339 3.2 9.7 0.00 0.00 0.00 72 1013.8
20260502115518 3 339 4.8 11.3 0.00 0.00 0.00 72 1013.8
20260502114534 3 340 4.8 6.4 0.00 0.00 0.00 72 1013.7
20260502113530 3 342 1.6 3.2 0.00 0.00 0.00 72 1013.7
20260502112546 3 341 1.6 4.8 0.00 0.00 0.00 72 1013.6
20260502111522 3 341 1.6 3.2 0.00 0.00 0.00 72 1013.5
20260502110518 3 341 1.6 4.8 0.00 0.00 0.00 72 1013.4
20260502105534 3 341 1.6 3.2 0.00 0.00 0.00 72 1013.3
20260502104529 3 341 1.6 3.2 0.00 0.00 0.00 71 1013.4
20260502103525 3 341 1.6 3.2 0.00 0.00 0.00 71 1013.3
20260502102541 3 341 3.2 4.8 0.00 0.00 0.00 71 1013.3
20260502100553 3 341 3.2 4.8 0.00 0.00 0.00 71 1013.2
20260502091532 3 341 3.2 4.8 0.00 0.00 0.00 70 1013.2
20260502090528 3 342 1.6 3.2 0.00 0.00 0.00 70 1013.1
20260502071522 3 0.0 0.0 0.00 0.00 0.00 70 1012.7
20260502070518 3 50 0.0 3.2 0.00 0.00 0.00 72 1012.7
20260502065534 3 341 1.6 6.4 0.00 0.00 0.00 72 1012.9
20260502064529 3 341 1.6 1.6 0.00 0.00 0.00 71 1013.1
20260502063525 3 341 1.6 4.8 0.00 0.00 0.00 71 1013.1
20260502062521 3 342 3.2 6.4 0.00 0.00 0.00 70 1013.3
20260502061517 3 343 3.2 6.4 0.00 0.00 0.00 70 1013.3
20260502060533 3 350 1.6 3.2 0.00 0.00 0.00 69 1013.2
20260502055528 3 348 0.0 3.2 0.00 0.00 0.00 70 1013.4
20260502054545 3 348 0.0 1.6 0.00 0.00 0.00 70 1013.5
20260502053541 3 33 1.6 3.2 0.00 0.00 0.00 70 1013.4
20260502052516 3 52 1.6 3.2 0.00 0.00 0.00 69 1013.4
20260502051553 3 52 0.0 3.2 0.00 0.00 0.00 69 1013.4
20260502050529 3 48 1.6 4.8 0.00 0.00 0.00 69 1013.4
20260502045525 3 356 1.6 4.8 0.00 0.00 0.00 68 1013.4
20260502044520 3 53 0.0 4.8 0.00 0.00 0.00 68 1013.2
20260502043516 4 49 1.6 9.7 0.00 0.00 0.00 68 1013.1
20260502042533 4 31 3.2 6.4 0.00 0.00 0.00 67 1013.0
20260502041529 4 32 1.6 3.2 0.00 0.00 0.00 67 1013.1
20260502040525 3 57 1.6 6.4 0.00 0.00 0.00 67 1012.9
20260502035521 3 55 1.6 4.8 0.00 0.00 0.00 66 1013.0
20260502034517 3 57 1.6 3.2 0.00 0.00 0.00 66 1012.9
20260502033533 4 40 1.6 4.8 0.00 0.00 0.00 65 1013.0
20260502032529 4 46 1.6 4.8 0.00 0.00 0.00 64 1013.0
20260502031525 4 337 0.0 4.8 0.00 0.00 0.00 64 1012.9
20260502030521 4 348 3.2 11.3 0.00 0.00 0.00 65 1013.0
20260502025517 4 31 1.6 6.4 0.00 0.00 0.00 64 1012.9
20260502024533 4 24 3.2 6.4 0.00 0.00 0.00 64 1013.0
20260502023529 4 45 1.6 6.4 0.00 0.00 0.00 64 1013.0
20260502022525 5 31 4.8 9.7 0.00 0.00 0.00 64 1012.8
20260502021521 5 29 4.8 11.3 0.00 0.00 0.00 63 1012.7
20260502020517 5 53 3.2 11.3 0.00 0.00 0.00 62 1012.5
20260502015533 5 51 4.8 14.5 0.00 0.00 0.00 63 1012.4
20260502014529 5 57 3.2 11.3 0.00 0.00 0.00 64 1012.4
20260502013524 5 66 3.2 9.7 0.00 0.00 0.00 64 1012.1
20260502012519 5 70 3.2 14.5 0.00 0.00 0.00 64 1012.1
20260502011535 5 65 3.2 9.7 0.00 0.00 0.00 64 1012.1
20260502010530 5 65 4.8 11.3 0.00 0.00 0.00 64 1011.9
20260502005526 5 60 1.6 4.8 0.00 0.00 0.00 65 1011.9
20260502004521 5 57 1.6 9.7 0.00 0.00 0.00 63 1011.8
20260502003517 5 59 1.6 6.4 0.00 0.00 0.00 63 1011.8
20260502002553 5 57 3.2 9.7 0.00 0.00 0.00 60 1011.7
20260502001528 5 63 4.8 12.9 0.00 0.00 0.00 59 1011.7
20260502000524 5 62 3.2 12.9 0.00 0.00 0.00 60 1011.5
20260501235520 6 60 3.2 9.7 0.00 0.00 0.00 61 1011.3
20260501234536 6 63 4.8 12.9 0.00 0.00 0.00 65 1011.1
20260501233532 6 58 3.2 11.3 0.00 0.00 0.00 66 1011.0
20260501232528 6 61 4.8 11.3 0.00 0.00 0.00 67 1011.0
20260501231524 6 54 4.8 11.3 0.00 0.00 0.00 67 1011.0
20260501230520 6 43 3.2 11.3 0.00 0.00 0.00 68 1010.9
20260501225536 7 54 3.2 12.9 0.00 0.00 0.00 69 1010.8
20260501224532 7 60 1.6 9.7 0.00 0.00 0.00 70 1010.7
20260501223527 7 61 4.8 11.3 0.00 0.00 0.00 70 1010.8
20260501222524 7 56 1.6 9.7 0.00 0.00 0.00 69 1010.8
20260501221519 7 58 3.2 12.9 0.00 0.00 0.00 68 1010.7
20260501220515 7 62 3.2 9.7 0.00 0.00 0.00 67 1010.6
20260501215531 7 58 4.8 12.9 0.00 0.00 0.00 67 1010.5
20260501214527 7 57 4.8 14.5 0.00 0.00 0.00 67 1010.5
20260501213523 8 63 4.8 17.7 0.00 0.00 0.00 64 1010.4
20260501212519 9 59 3.2 11.3 0.00 0.00 0.00 58 1010.3